Date String (YYYY-MM-DD hh:mm:ss) UTC,Instrument flags,Ambient pressure (hPa),Sample flow (lpm),Bypass flow (lpm),Sample temperature (°C),Ambient temperature (°C),ASC tube jacket temperature (°C),LED temperature (°C),Box temperature (°C),Sample RH (%),Span deviation,Mass concentration (μg/m³),Mass concentration (μg/m³),Mass concentration (μg/m³)
DateTimeUTC,F1_M11,P_M11,Q1_M11,Q2_M11,T1_M11,T2_M11,T3_M11,T4_M11,T5_M11,U1_M11,ZSPAN_M11,X0_M11,X2_M11,X1_M11
2022-05-22 13:00:00,,0832.4,5.00,0.00,23.1,22.1,00.0,32.0,25.0,18.0,0000.0,0000.05,0000.02,0000.00
2022-05-22 13:01:00,,0832.3,5.00,0.00,23.1,22.1,00.0,32.0,25.0,17.9,0000.0,0000.05,0000.02,0000.00
2022-05-22 13:02:00,,0832.3,4.99,0.00,23.1,22.1,00.0,32.0,25.0,17.6,0000.0,0000.05,0000.02,0000.00
2022-05-22 13:03:00,,0832.4,4.99,0.00,23.1,22.2,00.0,32.0,25.0,17.8,0000.0,0000.05,0000.02,0000.00
2022-05-22 13:04:00,,0832.4,5.00,0.00,23.1,22.2,00.0,32.0,25.0,17.7,0000.0,0000.05,0000.02,0000.00
2022-05-22 13:05:00,,0832.4,5.00,0.00,23.1,22.2,00.0,32.0,25.0,17.5,0000.0,0000.05,0000.02,0000.00
2022-05-22 13:06:00,,0832.4,5.01,0.00,23.1,22.2,00.0,32.0,25.0,17.6,0000.0,0001.00,0000.01,0000.00
2022-05-22 13:07:00,,0832.5,5.00,0.00,23.1,22.2,00.0,32.0,25.0,17.9,0000.0,0001.16,0000.00,0000.00
2022-05-22 13:08:00,,0832.5,4.99,0.00,23.1,22.2,00.0,32.0,25.0,17.7,0000.0,0001.16,0000.00,0000.00
2022-05-22 13:09:00,,0832.5,5.01,0.00,23.1,22.2,00.0,32.0,25.0,17.6,0000.0,0001.16,0000.00,0000.00
2022-05-22 13:10:00,,0832.5,5.00,0.00,23.1,22.2,00.0,32.0,25.0,17.5,0000.0,0001.22,0000.01,0000.00
2022-05-22 13:11:00,,0832.5,5.00,0.00,23.1,22.2,00.0,32.0,25.1,17.5,0000.0,0001.24,0000.02,0000.00
2022-05-22 13:12:00,,0832.5,4.99,0.00,23.2,22.3,00.0,32.0,25.1,17.3,0000.0,0001.25,0000.02,0000.00
2022-05-22 13:13:00,,0832.5,5.00,0.00,23.2,22.3,00.0,32.1,25.1,17.4,0000.0,0001.25,0000.02,0000.00
2022-05-22 13:14:00,,0832.5,5.01,0.00,23.2,22.3,00.0,32.1,25.1,17.2,0000.0,0001.25,0000.02,0000.00
2022-05-22 13:15:00,,0832.5,5.00,0.00,23.2,22.3,00.0,32.1,25.1,17.4,0000.0,0001.25,0000.02,0000.00
2022-05-22 13:16:00,,0832.5,5.00,0.00,23.2,22.3,00.0,32.1,25.1,17.2,0000.0,0001.25,0000.02,0000.00
2022-05-22 13:17:00,,0832.4,4.99,0.00,23.2,22.3,00.0,32.1,25.1,17.7,0000.0,0000.22,0000.02,0000.00
2022-05-22 13:18:00,,0832.5,5.01,0.00,23.2,22.4,00.0,32.1,25.1,17.4,0000.0,0000.09,0000.02,0000.00
2022-05-22 13:19:00,,0832.4,5.00,0.00,23.2,22.4,00.0,32.1,25.1,16.9,0000.0,0000.09,0000.02,0000.00
2022-05-22 13:20:00,,0832.4,4.99,0.00,23.2,22.4,00.0,32.1,25.1,16.1,0000.0,0000.09,0000.02,0000.00
2022-05-22 13:21:00,,0832.4,5.00,0.00,23.2,22.4,00.0,32.1,25.2,15.7,0000.0,0000.03,0000.01,0000.00
2022-05-22 13:22:00,,0832.4,4.99,0.00,23.3,22.4,00.0,32.1,25.1,15.7,0000.0,0000.01,0000.00,0000.00
2022-05-22 13:23:00,,0832.4,5.00,0.00,23.3,22.4,00.0,32.1,25.2,16.4,0000.0,0000.00,0000.00,0000.00
2022-05-22 13:24:00,,0832.5,5.00,0.00,23.3,22.4,00.0,32.1,25.2,16.6,0000.0,0000.01,0000.01,0000.00
2022-05-22 13:25:00,,0832.4,5.01,0.00,23.3,22.4,00.0,32.1,25.2,16.8,0000.0,0000.01,0000.01,0000.00
2022-05-22 13:26:00,,0832.5,4.99,0.00,23.3,22.5,00.0,32.1,25.2,17.1,0000.0,0000.01,0000.01,0000.00
2022-05-22 13:27:00,,0832.4,5.02,0.00,23.3,22.5,00.0,32.2,25.2,17.0,0000.0,0000.01,0000.01,0000.00
2022-05-22 13:28:00,,0832.5,5.00,0.00,23.3,22.5,00.0,32.2,25.2,17.1,0000.0,0000.01,0000.01,0000.00
2022-05-22 13:29:00,,0832.5,5.00,0.00,23.3,22.5,00.0,32.2,25.2,18.3,0000.0,0000.01,0000.01,0000.00
2022-05-22 13:30:00,,0832.5,4.99,0.00,23.3,22.5,00.0,32.2,25.3,18.8,0000.0,0000.01,0000.01,0000.00
2022-05-22 13:31:00,,0832.5,5.00,0.00,23.3,22.5,00.0,32.2,25.3,18.7,0000.0,0000.07,0000.01,0000.01
2022-05-22 13:32:00,,0832.4,5.00,0.00,23.3,22.5,00.0,32.2,25.3,19.1,0000.0,0000.18,0000.02,0000.01
2022-05-22 13:33:00,,0832.5,4.99,0.00,23.4,22.6,00.0,32.2,25.3,19.2,0000.0,0000.18,0000.02,0000.01
2022-05-22 13:34:00,,0832.5,5.02,0.00,23.4,22.6,00.0,32.2,25.3,19.6,0000.0,0000.18,0000.01,0000.01
2022-05-22 13:35:00,,0832.5,4.99,0.00,23.4,22.5,00.0,32.2,25.3,19.0,0000.0,0000.17,0000.01,0000.00
2022-05-22 13:36:00,,0832.5,5.00,0.00,23.4,22.5,00.0,32.2,25.3,18.8,0000.0,0000.17,0000.01,0000.00
2022-05-22 13:37:00,,0832.5,5.01,0.00,23.4,22.5,00.0,32.2,25.3,18.7,0000.0,0000.17,0000.01,0000.01
2022-05-22 13:38:00,,0832.5,4.99,0.00,23.4,22.5,00.0,32.3,25.3,19.0,0000.0,0000.17,0000.01,0000.01
2022-05-22 13:39:00,,0832.4,5.00,0.00,23.4,22.5,00.0,32.3,25.3,19.1,0000.0,0000.17,0000.01,0000.01
2022-05-22 13:40:00,,0832.4,4.99,0.00,23.4,22.5,00.0,32.3,25.3,19.1,0000.0,0000.17,0000.01,0000.01
2022-05-22 13:41:00,,0832.4,5.01,0.00,23.4,22.5,00.0,32.3,25.3,18.7,0000.0,0000.17,0000.01,0000.00
2022-05-22 13:42:00,,0832.4,4.99,0.00,23.4,22.5,00.0,32.3,25.3,18.4,0000.0,0000.12,0000.01,0000.00
2022-05-22 13:43:00,,0832.4,5.02,0.00,23.4,22.6,00.0,32.3,25.3,18.6,0000.0,0000.01,0000.01,0000.00
2022-05-22 13:44:00,,0832.4,4.99,0.00,23.4,22.6,00.0,32.3,25.3,18.5,0000.0,0000.01,0000.01,0000.00
2022-05-22 13:45:00,,0832.5,5.00,0.00,23.4,22.6,00.0,32.3,25.3,18.2,0000.0,0000.02,0000.01,0000.00
2022-05-22 13:46:00,,0832.4,5.00,0.00,23.4,22.6,00.0,32.3,25.3,18.3,0000.0,0000.04,0000.02,0000.00
2022-05-22 13:47:00,,0832.5,5.01,0.00,23.4,22.6,00.0,32.3,25.3,17.8,0000.0,0000.04,0000.02,0000.00
2022-05-22 13:48:00,,0832.5,4.99,0.00,23.4,22.6,00.0,32.3,25.4,18.0,0000.0,0000.04,0000.03,0000.00
2022-05-22 13:49:00,,0832.5,5.00,0.00,23.4,22.6,00.0,32.3,25.4,18.0,0000.0,0000.04,0000.02,0000.00
2022-05-22 13:50:00,,0832.4,5.00,0.00,23.5,22.6,00.0,32.3,25.4,18.2,0000.0,0000.04,0000.02,0000.00
2022-05-22 13:51:00,,0832.4,5.00,0.00,23.5,22.7,00.0,32.3,25.4,18.4,0000.0,0000.04,0000.02,0000.00
2022-05-22 13:52:00,,0832.5,5.01,0.00,23.5,22.7,00.0,32.3,25.4,18.3,0000.0,0000.04,0000.03,0000.00
2022-05-22 13:53:00,,0832.5,5.00,0.00,23.5,22.7,00.0,32.4,25.5,18.5,0000.0,0000.04,0000.02,0000.00
2022-05-22 13:54:00,,0832.5,5.00,0.00,23.5,22.7,00.0,32.4,25.5,17.8,0000.0,0000.04,0000.02,0000.00
2022-05-22 13:55:00,,0832.5,4.99,0.00,23.5,22.7,00.0,32.4,25.5,17.4,0000.0,0000.04,0000.02,0000.00
2022-05-22 13:56:00,,0832.5,5.01,0.00,23.5,22.7,00.0,32.4,25.5,17.6,0000.0,0000.04,0000.02,0000.00
2022-05-22 13:57:00,,0832.5,5.00,0.00,23.5,22.7,00.0,32.4,25.5,17.8,0000.0,0000.01,0000.01,0000.00
2022-05-22 13:58:00,,0832.5,5.01,0.00,23.5,22.7,00.0,32.4,25.5,17.5,0000.0,0000.01,0000.01,0000.00
2022-05-22 13:59:00,,0832.5,4.99,0.00,23.5,22.7,00.0,32.4,25.5,17.7,0000.0,0000.01,0000.01,0000.00
